Diego Álvarez

Olheiro-Chefe - Eibar
22 Fev 2027
Segunda-feira
Processo

Personalidade

Adaptabilidade (1) Ambição (1) Controvérsia (16) Lealdade (5) Pressão (8) Profissionalismo (3) Espírito Esportivo (11) Temperamento (7)

Perfil

Estilo de Treinamento Democrático
Licença Continental A
Determinação 5
Gestão de Pessoas 7
Motivação 7
Disciplina 6
Satisfação no Trabalho
49%
Fadiga
0%
Função Olheiro-Chefe
Salário 19.8K p/s
Contrato 14.03.2030

Desempenho

Comportamento Normal
Eficácia do Treinamento
19%
Desenvolvimento do Jogador
25%
Prevenção de Lesões
45%
Implementação Tática
45%

Eventos Recentes

Recomendou um alvo de transferência agora
Recomendou um alvo de transferência agora
Recomendou um alvo de transferência agora
Recomendou um alvo de transferência agora
Avaliou um jogador agora
Avaliou um jogador agora
Avaliou um jogador agora
Observou uma partida agora

Monitorando agora

124
Jogador Clube Status Habilidade Confiança Observado Última observação Último voto
Peter Federico Gornik Zabrze Ativo 118 / 127 40% 1 21.02.2027 -
Chrystian Barletta São Paulo Ativo 100 / 125 40% 1 21.02.2027 -
Ali Soliman Masr El Makasa Ativo 123 / 134 40% 2 20.02.2027 -
Luís Guilherme Sporting CP Ativo 120 / 132 40% 1 20.02.2027 -
Santiago Simón Toluca Ativo 142 / 125 40% 2 18.02.2027 -
Thapelo Maseko FC Copenhagen Ativo 98 / 126 40% 1 18.02.2027 -
Jeremy Márquez Cruz Azul Ativo 134 / 119 40% 3 17.02.2027 -
Ilja Vakhania Krasnodar Ativo 108 / 115 40% 1 17.02.2027 -
Lindon Emërllahu Polissia Ativo 106 / 123 40% 1 16.02.2027 -
Ibrahim Cissoko Zwolle Ativo 116 / 121 40% 1 16.02.2027 -
César Huerta Pumas UNAM Ativo 136 / 130 40% 7 15.02.2027 -
Arsen Adamov Akhmat Grozny Ativo 139 / 117 40% 1 11.02.2027 -
Marcelo Flores Tigres Ativo 100 / 125 40% 2 10.02.2027 -
Luis Palma Lech Ativo 102 / 127 40% 1 10.02.2027 -
Helinho Toluca Ativo 151 / 129 40% 3 07.02.2027 -
Juan Bezerra Zamalek Ativo 127 / 122 40% 1 05.02.2027 -
Sayfallah Ltaief Cracovia Ativo 141 / 114 40% 1 05.02.2027 -
Angelo Gattermayer Wolfsberger AC Ativo 129 / 124 40% 4 04.02.2027 -
Damián Puebla Orenburg Ativo 110 / 129 40% 1 04.02.2027 -
Rômulo Tigres Ativo 135 / 119 40% 2 02.02.2027 -
Omar Campos Cruz Azul Ativo 132 / 135 40% 2 02.02.2027 -
Camilo Durán Bloemfontein Celtic Ativo 120 / 116 40% 5 01.02.2027 -
Filip Kubala Banik Ostrava Ativo 113 / 118 40% 2 01.02.2027 -
Alejo Dramisino Honved Ativo 121 / 121 40% 2 31.01.2027 -
Chris Lokesa Waasland-Beveren Ativo 121 / 121 40% 1 29.01.2027 -
Bryan González Guadalajara Ativo 123 / 127 40% 2 28.01.2027 -
Jesús Garza Tigres Ativo 140 / 131 40% 3 28.01.2027 -
Michal Kohút Banik Ostrava Ativo 147 / 128 40% 1 27.01.2027 -
Ozziel Herrera Tigres Ativo 122 / 133 40% 1 27.01.2027 -
Carlos Albarrán Córdoba Ativo 128 / 127 44% 1 25.01.2027 -
Édouard Vincent Tours Ativo 119 / 125 40% 1 24.01.2027 -
Franco Romero Toluca Rejeitado 108 / 128 40% 2 17.01.2027 Mais informações
Ibrahim Tarek Masr El Makasa Ativo 132 / 124 40% 1 17.01.2027 -
Alex Luna Instituto Ativo 126 / 123 40% 1 13.01.2027 -
César Araújo Tigres Ativo 119 / 119 40% 1 13.01.2027 -
Ezequiel Bullaude Santos Laguna Ativo 107 / 114 40% 2 12.01.2027 -
Gift Zwane Platinum Stars Ativo 123 / 120 40% 1 12.01.2027 -
Dion Beljo Dinamo Zagreb Relatório pronto 131 / 132 64% 1 01.01.2027 Aprovar
Esquerdinha São Paulo Negociando 101 / 110 66% 1 01.01.2027 Aprovar
Andrey Estupiñán Millonarios Perdido 120 / 120 66% 1 01.01.2027 -
Edwar López Deportes Tolima Relatório pronto 117 / 117 67% 1 01.01.2027 Aprovar
Ciprian Coman Pandurii Relatório pronto 114 / 125 66% 1 01.01.2027 Aprovar
Ignacio Russo Tigre Ativo 104 / 131 40% 3 29.12.2026 -
Dale Taylor Blackpool Ativo 107 / 107 40% 1 29.12.2026 -
Favio Cabral Mitre Ativo 96 / 108 40% 2 27.12.2026 -
Carlos Paraco Metalist Ativo 90 / 113 40% 3 27.12.2026 -
Tamerlan Musaev CSKA Moscow Ativo 106 / 119 40% 2 26.12.2026 -
Alejandro Piedrahita Deportivo Pereira Rejeitado 119 / 119 40% 1 26.12.2026 Mais informações
Florián Monzón Atlas Ativo 125 / 134 40% 4 24.12.2026 -
Etiosa Ighodaro Kaizer Chiefs Ativo 122 / 107 40% 1 24.12.2026 -
Diego Valencia Gornik Leczna Ativo 99 / 108 40% 1 23.12.2026 -
Alexis Cuello San Lorenzo Ativo 126 / 130 40% 1 23.12.2026 -
Joaquín García Vélez Ativo 129 / 129 40% 1 23.12.2026 -
Franco Ibarra Rosario Central Ativo 131 / 135 40% 1 23.12.2026 -
Bienvenue Kanakimana Zbrojovka Brno Ativo 109 / 117 40% 1 20.12.2026 -
Enzo Avaro Mitre Ativo 92 / 119 40% 1 20.12.2026 -
Rok Zajc NK Domzale Ativo 142 / 127 40% 3 18.12.2026 -
Mateo Fernández Angusht Ativo 69 / 88 40% 1 18.12.2026 -
Brayan Gil Baltika Ativo 135 / 123 40% 2 16.12.2026 -
Evidence Makgopa Orlando Pirates Ativo 101 / 110 40% 2 15.12.2026 -
Noah Ganaus OB Ativo 100 / 119 40% 2 12.12.2026 -
Alexis Steimbach Gimnasia La Plata Ativo 131 / 129 40% 1 12.12.2026 -
Santiago González Tigre Ativo 143 / 120 40% 1 10.12.2026 -
Juan Cruz de los Santos Nacional Ativo 128 / 119 40% 2 09.12.2026 -
Roberto de la Rosa Monterrey Ativo 98 / 114 40% 1 07.12.2026 -
Elias Manoel Tijuana Ativo 95 / 107 40% 1 06.12.2026 -
Thiago Calone All Boys Ativo 101 / 115 40% 1 05.12.2026 -
Jefry Zapata Once Caldas Ativo 104 / 113 40% 3 04.12.2026 -
Ştefan Baiaram Universitatea Craiova Ativo 119 / 130 40% 1 04.12.2026 -
Lucio Castillo Colegiales Ativo 106 / 115 40% 1 04.12.2026 -
Jannenson Sarmiento Junior Ativo 117 / 116 40% 1 04.12.2026 -
Assad Al Hamlawi Universitatea Craiova Ativo 100 / 119 40% 2 01.12.2026 -
Santiago Toloza O'Higgins Ativo 124 / 118 40% 1 30.11.2026 -
Ramiro Ruiz Rodríguez Atlético Tucumán Ativo 130 / 122 40% 1 30.11.2026 -
Luka Romero Cruz Azul Ativo 104 / 123 40% 1 27.11.2026 -
Tomás Silva Platense Ativo 109 / 119 40% 1 27.11.2026 -
César Ibáñez Huracán Ativo 144 / 124 40% 1 26.11.2026 -
Agustín Hausch Defensa y Justicia Ativo 119 / 122 40% 2 25.11.2026 -
Juan David Rueda Alianza Petrolera Ativo 93 / 103 40% 2 21.11.2026 -
Itumeleng Tau Ajax Cape Town Ativo 111 / 115 40% 1 19.11.2026 -
Brayan León Mamelodi Sundowns Ativo 133 / 116 40% 1 17.11.2026 -
Justo Giani Universidad Catolica Ativo 137 / 121 40% 1 14.11.2026 -
Ivo Costantino Danubio Ativo 115 / 110 40% 1 11.11.2026 -
Patrick Preciado Deportivo Pasto Ativo 89 / 101 40% 1 10.11.2026 -
Xavier Biscayzacú Defensor Sporting Ativo 115 / 132 40% 1 09.11.2026 -
Ramiro Sordo Santos Laguna Ativo 108 / 117 40% 1 09.11.2026 -
Manuel Mónaco Sarmiento Ativo 106 / 125 40% 1 09.11.2026 -
Iker Benito Queretaro Ativo 107 / 114 40% 1 08.11.2026 -
Emerson Batalla Atletico Bucaramanga Ativo 132 / 127 40% 1 07.11.2026 -
Mateo Zuleta Once Caldas Ativo 125 / 118 40% 1 06.11.2026 -
Yoshan Valois Lanús Ativo 101 / 115 40% 1 05.11.2026 -
Jerónimo Porto Lapegüe Slask Ativo 102 / 118 40% 1 05.11.2026 -
Diego Andrada Segesta Ativo 111 / 91 40% 1 03.11.2026 -
Pedro Bravo FC Midtjylland Ativo 132 / 133 40% 1 18.10.2026 -
Sergio Quintero La Equidad Ativo 144 / 136 40% 3 17.10.2026 -
Kaick FC Dallas Ativo 102 / 114 40% 1 09.10.2026 -
Santiago Fernández Talleres Ativo 106 / 113 40% 4 08.10.2026 -
Simphiwe Selepe Orlando Pirates Ativo 109 / 111 40% 1 07.10.2026 -
Lucas Richarte Temperley Ativo 88 / 101 40% 2 06.10.2026 -
Enzo Cardozo Almirante Brown Ativo 97 / 109 40% 1 06.10.2026 -
Nicolás Rojas Banfield Ativo 83 / 101 40% 1 05.10.2026 -
Camilo Rey Domenech Boca Juniors Ativo 125 / 115 40% 1 05.10.2026 -
Ulises Piedrabuena Vélez Ativo 74 / 111 40% 1 11.09.2026 -
Alexis Pereyra Vélez Ativo 114 / 109 40% 1 11.09.2026 -
Lucas Agazzi Defensor Sporting Ativo 129 / 128 40% 1 07.09.2026 -
Ezequiel Burdin Defensa y Justicia Ativo 97 / 109 40% 1 07.09.2026 -
Agustín Alvez San Lorenzo Ativo 75 / 106 40% 2 03.09.2026 -
Gerónimo Miranda San Telmo Ativo 92 / 89 40% 1 03.09.2026 -
Facundo Di Biasi Gimnasia La Plata Ativo 137 / 119 40% 1 02.09.2026 -
Ignacio Perruzzi San Lorenzo Ativo 114 / 135 40% 2 01.09.2026 -
Marco Oroná Antofagasta Ativo 85 / 115 40% 1 31.08.2026 -
Faustino Messina Estudiantes Ativo 76 / 102 40% 1 31.08.2026 -
Santiago Cortes Atlético Tucumán Ativo 67 / 85 40% 1 30.08.2026 -
Gonzalo Escudero Racing Club Ativo 90 / 111 40% 1 30.08.2026 -
Eliás Montiel Pachuca Ativo 107 / 124 40% 1 29.08.2026 -
Emilio Giaccone Unión de Santa Fe Ativo 108 / 113 40% 1 28.08.2026 -
Agustín Obregón River Plate Ativo 89 / 125 40% 2 27.08.2026 -
Mirko Bruno Vélez Ativo 79 / 96 40% 1 27.08.2026 -
Juan Segundo Miretti River Plate Ativo 77 / 111 40% 2 26.08.2026 -
Facundo Ortíz Independiente Rivadavia Ativo 110 / 105 40% 1 25.08.2026 -
Ignacio Isla Unión de Santa Fe Ativo 99 / 101 40% 1 25.08.2026 -
Valentino Massi Sarmiento Ativo 90 / 104 40% 1 20.08.2026 -
Thiago Omar Pérez Huracán Ativo 72 / 111 40% 1 18.08.2026 -
Santino Bima Huracán Ativo 95 / 98 40% 1 18.08.2026 -